カタログに戻る

OPS 7613 (P/L 5) DEB

運用中LEO
NORAD 43191·DEBRIS·🇺🇸 United States

打ち上げ Sep 30, 1969 から Vandenberg Space Force Base

Loading…

次のパス (今後24時間)

TLE

最新Source: Space-Track

元期: Sep 14, 2026, 00:37 UTC

1 43191U 69082LJ  26257.02616993  .00000062  00000-0  82881-4 0  9990
2 43191  70.0125 271.1088 0020092   4.0052 356.1211 13.96449954461055

AllMySatでOPS 7613 (P/L 5) DEBをリアルタイム追跡

Download on the App Store